Regional Weather Roundup
Issued by NWS Newport/Morehead, NC

Current Version | Previous Version | Text Only | Print | Product List | Glossary On
Versions: 1 2 3 4 5 6 7 8 9 10 11 12 13 14 15 16 17 18 19 20 21 22 23 24 25 26 27 28 29 30 31 32 33 34 35 36 37 38 39 40 41 42 43 44 45 46 47 48 49 50
000
ASUS42 KMHX 201213
RWRMHX
WEATHER ROUNDUP FOR EASTERN NORTH CAROLINA
NATIONAL WEATHER SERVICE NEWPORT/MOREHEAD CITY NC
800 AM EDT SUN MAY 20 2018

NOTE: "FAIR" INDICATES FEW OR NO CLOUDS BELOW 12,000 FEET
WITH NO SIGNIFICANT WEATHER AND/OR OBSTRUCTIONS TO VISIBILITY

NCZ015>017-031-032-045>047-102-103-201300-
NORTH COAST

CITY           SKY/WX    TMP DP  RH WIND       PRES   REMARKS
EDENTON        NOT AVBL
ELIZABETH CITY CLOUDY    75  73  93 S10       30.14S
KITTY HAWK     FAIR      75  70  84 SW10G17   30.15R
MANTEO         PTSUNNY   76  70  82 SW15G26   30.16S

$$

NCZ045>047-081-094-103-104-201300-
CENTRAL COAST

CITY           SKY/WX    TMP DP  RH WIND       PRES   REMARKS
FRISCO         FAIR      74  71  91 S9        30.18S

$$

NCZ095-097-098-100-101-201300-
SOUTHERN COAST

CITY           SKY/WX    TMP DP  RH WIND       PRES   REMARKS
BEAUFORT       FAIR      75  72  90 S12       30.17S
CEDAR ISLAND   NOT AVBL
JACKSONVILLE   PTSUNNY   75  72  90 SW7       30.16R
PINEY ISLAND   NOT AVBL
WILMINGTON     LGT RAIN  71  68  90 SW7       30.16R


$$

NCZ011>013-027>030-043-044-078>080-089-090>093-098-201300-
COASTAL PLAIN

CITY           SKY/WX    TMP DP  RH WIND       PRES   REMARKS
AHOSKIE        CLOUDY    71  71  98 S5        30.14S
CLINTON        CLOUDY    71  71 100 S5        30.16S
ELIZABETHTOWN  CLOUDY    71  69  96 S7        30.16S
GOLDSBORO      CLOUDY   N/A N/A N/A S6        30.15S
GREENVILLE     FAIR      73  72  94 SW6       30.16S
HAVELOCK       NOT AVBL
KENANSVILLE    FAIR      72  70  94 SW3       30.16S
KINSTON        PTSUNNY   72  70  94 S7        30.16S
NEW BERN       PTSUNNY   74  72  93 S7        30.17R FOG
RICHLANDS      CLOUDY    71  70  96 S6        30.17R
ROCKY MOUNT    FAIR      72  69  90 S9        30.15R
WASHINGTON     RAIN      73  71  95 CALM      30.16S
WHITEVILLE     CLOUDY    71  70  96 S5        30.16R

$$

AMZ130-135-150-152-154-156-158-170-250-252-270-ANZ085-086-088-633-658-670-201300-
MARINE OBSERVATIONS

STATION/POSITION TIME  TEMP    WIND        PRES    WAVE   SWELL
                       AIR SEA DIR/SP/G            HT/PER HT/PER
                 (UTC) (F)     (DEG/KT/KT) (MB)    (FT/S) (FT/S)
CHESAPEAKE LIGHT NOT AVBL
64 E VA BEACH    1150   68 64  210/ 12/ 14 1021.5    5/ 8   5/ 8
DUCK             1142   75 58  210/ 13/ 17 1020.6
2 E DUCK         1200      61                N/A     3/ 6
OREGON INLET     1142   76 75  200/ 21/ 24 1021.0
13E OREGON INLT  1148      65                N/A     5/ 7   2/14
HATTERAS CG      1142   75 74  190/  6/ 12 1021.4
DIAMOND BUOY     1200   78 75  200/ 17/ 23 1022.4
CAPE LOOKOUT     1200          180/ 13/ 15 1022.1
BEAUFORT LAB     1142   75 76  190/ 12/ 15 1022.0
30 SE NEW RVR IN 1108   76     190/ 12/ 16 1021.7
30 SE NEW RVR IN 1200      76                N/A     7/ 8
27 SE WRIGHTSVLE 1108   74 73  190/ 10/ 16 1021.6
5 SE WRIGHTSVLE  NOT AVBL
225 S CAPE HAT   1150      77  160/ 14/ 16 1024.0    5/ 9   3/ 9
41 SE CHARLESTON 1150      74   CALM  /  4 1021.6    6/ 8   7/ 8

$$



USA.gov is the U.S. government's official web portal to all federal, state and local government web resources and services.